www.pogodaiklimat.ru
ПОГОДА в Хальде V
Время
(UTC), дата
22 16.10
23 16.10
00 17.10
01 17.10
02 17.10
03 17.10
04 17.10
05 17.10
06 17.10
07 17.10
08 17.10
09 17.10
10 17.10
11 17.10
12 17.10
13 17.10
14 17.10
15 17.10
16 17.10
17 17.10
18 17.10
19 17.10
20 17.10
21 17.10
22 17.10
23 17.10
00 18.10
01 18.10
02 18.10
03 18.10
04 18.10
05 18.10
06 18.10
07 18.10
09 18.10
10 18.10
11 18.10
12 18.10
13 18.10
14 18.10
15 18.10
16 18.10
17 18.10
18 18.10
19 18.10
20 18.10
21 18.10
22 18.10
23 18.10
00 19.10
01 19.10
02 19.10
03 19.10
04 19.10
05 19.10
06 19.10
07 19.10
08 19.10
09 19.10
10 19.10
11 19.10
12 19.10
13 19.10
14 19.10
15 19.10
16 19.10
17 19.10
18 19.10
19 19.10
20 19.10
21 19.10
22 19.10
23 19.10
00 20.10
01 20.10
02 20.10
03 20.10
04 20.10
05 20.10
06 20.10
07 20.10
08 20.10
09 20.10
10 20.10
11 20.10
12 20.10
13 20.10
14 20.10
15 20.10
16 20.10
17 20.10
18 20.10
19 20.10
20 20.10
21 20.10
22 20.10
23 20.10
00 21.10
01 21.10
02 21.10
03 21.10
04 21.10
05 21.10
06 21.10
07 21.10
08 21.10
09 21.10
10 21.10
11 21.10
12 21.10
13 21.10
14 21.10
15 21.10
16 21.10
17 21.10
18 21.10
19 21.10
20 21.10
21 21.10
22 21.10
23 21.10
00 22.10
01 22.10
02 22.10
03 22.10
04 22.10
05 22.10
06 22.10
07 22.10
08 22.10
09 22.10
10 22.10
11 22.10
12 22.10
13 22.10
14 22.10
15 22.10
16 22.10
17 22.10
18 22.10
19 22.10
20 22.10
21 22.10
22 22.10
23 22.10
00 23.10
01 23.10
02 23.10
03 23.10
04 23.10
05 23.10
06 23.10
07 23.10
08 23.10
09 23.10
10 23.10
11 23.10
12 23.10
13 23.10
14 23.10
15 23.10
16 23.10
17 23.10
18 23.10
19 23.10
20 23.10
Ветер
(напр.,м/с)
Видим. Явления Облачность Т
(С)
Тd
(С)
f
(%)
Тe
(С)
Тes
(С)
Комфортность P
(гПа)
Po
(гПа)
Тmin
(С)
Tmax
(С)
R
(мм)
R24
(мм)
S
(см)
ЮЗ 2 100 м туман 10/10 30 м
[]
+9.7 +9.7 100 +8 +8 тепло 1006.8 996.1
ЮЗ 2 100 м туман 10/10 30 м
[]
+9.7 +9.7 100 +8 +8 тепло 1007.0 996.3
ЮЗ 3 100 м туман {дымка} 10/10 30 м
[]
+9.3 +9.2 99 +7 +7 тепло 1007.0 996.3
Ю 2 100 м туман 10/10 60 м
[]
+9.0 +9.0 100 +7 +7 тепло 1006.9 996.1
ЮВ 2 100 м туман 10/10 60 м
[]
+8.9 +8.9 100 +7 +7 тепло 1006.6 995.9
ЮВ 3 100 м туман 10/10 30 м
[]
+8.8 +8.8 100 +6 +6 тепло 1006.3 995.6
ЮВ 4 100 м туман 10/10 60 м
[]
+8.8 +8.8 100 +6 +6 тепло 1005.9 995.2
В 4 400 м туман 10/10 60 м
[]
+9.3 +9.3 100 +6 +6 тепло 1005.5 994.8
ЮВ 4 1400 м слаб. дождь {туман} 10/10 60 м
[]
+10.1 +10.1 100 +7 +7 тепло 1005.3 994.6 +8.7 +11.8
ЮВ 5 1100 м слаб. морось {дождь} 10/10 60 м
[]
+10.7 +10.7 100 +8 +8 тепло 1005.6 994.9
ЮВ 4 4300 м слаб. дождь 10/10 60 м
[]
+11.1 +11.1 100 +8 +8 тепло 1005.5 994.8
Ю 5 5000 м морось {ливн. осадки, дождь} 9/9 60 м
[]
+11.7 +11.7 100 +9 +9 тепло 1005.8 995.1
ЮЗ 4 40 км в посл. час дождь {морось} 6/6 90 м
[]
+12.1 +12.1 100 +10 +11 тепло 1006.1 995.5
ЮЗ 5 29 км в посл. час морось {ливн. осадки} 1/1 180 м
[]
+13.4 +12.3 93 +11 +13 тепло 1006.3 995.7
З 5 30 км {ливн. осадки, дождь} 1/1 330 м
[]
+12.9 +11.5 91 +11 +12 тепло 1006.7 996.1
ЮЗ 5 45 км ясно +13.2 +11.2 88 +11 +12 тепло 1007.1 996.5
ЮЗ 4 40 км 1/1 870 м
[]
+13.0 +10.6 85 +11 +12 тепло 1007.4 996.8
ЮЗ 3 40 км ясно +12.4 +9.3 81 +11 +11 тепло 1007.8 997.1
ЮЗ 3 35 км ясно +12.0 +9.9 87 +11 +11 тепло 1008.0 997.4
ЮЗ 4 40 км ясно +10.5 +9.4 93 +8 +8 тепло 1008.5 997.8
ЮЗ 3 35 км {дымка} ясно +10.1 +9.6 97 +8 +8 тепло 1008.8 998.1 +10.0 +13.5
Ю 4 35 км ясно +9.7 +9.4 98 +7 +7 тепло 1008.9 998.2
ЮЗ 3 30 км ясно +8.7 +8.7 100 +6 +6 тепло 1009.5 998.7
ЮЗ 3 26 км ясно +7.9 +7.9 100 +5 +5 тепло 1009.8 998.9
Ю 2 27 км ясно +7.5 +7.4 99 +5 +5 тепло 1009.6 998.7
Ю 2 23 км ясно +7.5 +7.4 99 +5 +5 тепло 1009.4 998.6
Ю 2 7000 м дымка ясно +7.8 +7.8 100 +5 +5 тепло 1009.1 998.3
ЮВ 3 11 км ясно +7.8 +7.8 100 +5 +5 тепло 1008.8 998.0
ЮВ 3 18 км ясно +7.9 +7.7 99 +5 +5 тепло 1008.6 997.8
ЮВ 3 13 км ясно +8.6 +8.5 99 +6 +6 тепло 1008.0 997.2
ЮВ 3 10 км ясно +8.8 +8.7 99 +6 +6 тепло 1007.6 996.8
ЮВ 3 9000 м дымка ясно +9.0 +9.0 100 +7 +7 тепло 1006.9 996.1
ЮВ 4 2700 м дымка ясно +9.3 +9.3 100 +6 +6 тепло 1006.5 995.8 +7.3 +10.3
ЮВ 4 3700 м дымка ясно +9.7 +9.5 99 +7 +7 тепло 1006.2 995.5
ЮВ 3 2500 м дымка 6/6 120 м
[]
+10.5 +10.5 100 +8 +9 тепло 1005.5 994.8
В 3 8000 м дымка 9/9 60 м
[]
+11.2 +11.2 100 +9 +10 тепло 1004.8 994.1
ЮВ 4 30 км 6/6 150 м
[]
+11.8 +11.2 96 +10 +11 тепло 1004.0 993.4
Ю 5 28 км {дымка} 6/6 240 м
[]
+12.3 +10.9 91 +10 +11 тепло 1003.2 992.6
Ю 4 26 км 1/1 400 м
[]
+11.8 +10.3 91 +10 +11 тепло 1002.4 991.8
ЮВ 3 10 км слаб. ливневой дождь 6/6 240 м
[]
+11.4 +11.1 98 +9 +10 тепло 1001.8 991.1
ЮВ 4 12 км {ливн. осадки, дождь} 6/6 180 м
[]
+12.1 +11.9 99 +10 +10 тепло 1000.7 990.1
ЮВ 3 9000 м слаб. ливневой дождь 6/6 90 м
[]
+11.9 +11.9 100 +10 +10 тепло 999.8 989.2
ЮВ 4 9000 м дымка {ливн. осадки} 6/6 90 м
[]
+12.1 +12.1 100 +10 +10 тепло 998.9 988.3
Ю 6 5000 м ливневой дождь 9/9 90 м
[]
+11.4 +11.1 98 +8 +8 тепло 998.1 987.5 +9.3 +12.4
ЮЗ 6 22 км слаб. ливневой дождь 1/1 210 м
[]
+10.2 +9.7 97 +7 +7 тепло 998.1 987.5
Ю 7 50 км в посл. час дождь {ливн. осадки} 4/4 420 м
[]
+10.1 +9.4 95 +6 +6 тепло 998.0 987.4
ЮЗ 9 30 км {ливн. осадки, дождь} 1/1 300 м
[]
+9.8 +9.3 97 +5 +5 тепло 998.3 987.7
Ю 8 35 км в посл. час дождь {ливн. осадки} 1/1 540 м
[]
+9.8 +9.2 96 +6 +6 тепло 998.7 988.1
Ю 7 22 км ясно +9.5 +9.0 97 +5 +5 тепло 999.1 988.4
Ю 8 22 км {ливн. осадки, дождь} 1/1 450 м
[]
+9.6 +8.8 95 +5 +5 тепло 999.3 988.7
Ю 8 19 км в посл. час морось {ливн. осадки, дождь} 1/1 480 м
[]
+10.1 +9.4 95 +6 +6 тепло 999.5 988.9
Ю 7 10 км слаб. ливневой дождь {морось} 1/1 240 м
[]
+10.1 +9.6 97 +6 +6 тепло 999.7 989.1
Ю 8 19 км в посл. час дождь {ливн. осадки} 1/1 420 м
[]
+10.3 +9.1 92 +6 +6 тепло 1000.2 989.6
Ю 7 22 км ясно +9.6 +8.6 93 +6 +6 тепло 1000.7 990.1
Ю 7 16 км в посл. час морось {ливн. осадки, дождь} ясно +9.4 +9.1 98 +5 +5 тепло 1001.2 990.5
Ю 8 17 км {ливн. осадки, дождь} 1/1 330 м
[]
+9.6 +9.1 97 +5 +5 тепло 1001.6 990.9 +9.2 +11.4
Ю 7 25 км ясно +10.1 +9.1 94 +6 +6 тепло 1002.0 991.3
Ю 7 24 км ясно +10.2 +8.8 91 +6 +7 тепло 1002.4 991.7
Ю 8 22 км ясно +10.0 +8.4 90 +6 +6 тепло 1002.8 992.1
Ю 7 19 км 9/9 360 м
[]
+10.4 +8.8 90 +7 +7 тепло 1003.1 992.4
Ю 9 22 км 1/1 420 м
[]
+11.2 +9.1 87 +7 +7 тепло 1003.2 992.5
Ю 6 22 км 1/1 480 м
[]
+11.4 +9.2 86 +8 +9 тепло 1003.3 992.7
Ю 7 26 км 1/1 500 м
[]
+11.5 +9.3 86 +8 +9 тепло 1003.5 992.9
Ю 6 26 км ясно +11.7 +9.6 87 +9 +9 тепло 1003.5 992.9
Ю 6 29 км 1/1 400 м
[]
+11.0 +9.8 92 +8 +8 тепло 1003.5 992.8
Ю 5 24 км ясно +10.8 +9.5 92 +8 +8 тепло 1003.6 993.0
ЮВ 5 28 км 1/1 420 м
[]
+10.6 +9.7 94 +8 +8 тепло 1003.9 993.2
Ю 5 13 км морось {ливн. осадки, дождь} 1/1 240 м
[]
+10.5 +10.2 98 +7 +7 тепло 1004.0 993.4 +9.5 +12.5
Ю 4 7000 м слаб. дождь {морось} 9/9 90 м
[]
+10.3 +10.2 99 +8 +8 тепло 1004.0 993.3
ЮВ 3 6000 м дождь 9/9 210 м
[]
+10.2 +10.2 100 +8 +8 тепло 1003.8 993.1
Ю 3 11 км в посл. час дождь {морось} 1/1 210 м
[]
+10.3 +10.2 99 +8 +8 тепло 1003.9 993.2
Ю 3 12 км ясно +10.2 +10.2 100 +8 +8 тепло 1004.0 993.4
Ю 3 9000 м дымка 1/1 300 м
[]
+9.6 +9.6 100 +7 +7 тепло 1004.2 993.5
Ю 3 5000 м дымка {дождь} ясно +8.7 +8.7 100 +6 +6 тепло 1004.7 994.0
Ю 3 4400 м дымка 6/6 30 м
[]
+8.4 +8.4 100 +6 +6 тепло 1005.1 994.3
Ю 4 6000 м дымка ясно +8.2 +8.2 100 +5 +5 тепло 1005.2 994.5
Ю 4 3100 м дымка ясно +8.3 +8.3 100 +5 +5 тепло 1005.3 994.5
Ю 5 1600 м дымка 9/9 60 м
[]
+8.3 +8.3 100 +4 +4 по сезону 1005.8 995.0
Ю 5 3400 м дымка 9/9 60 м
[]
+8.7 +8.7 100 +5 +5 тепло 1006.0 995.3
Ю 5 3600 м дымка 6/6 90 м
[]
+8.8 +8.7 99 +5 +5 тепло 1006.6 995.8 +7.9 +11.0
Ю 3 4300 м дымка 9/9 210 м
[]
+9.1 +9.1 100 +6 +6 тепло 1007.1 996.4
Ю 3 5000 м дымка 9/9 150 м
[]
+9.6 +9.6 100 +7 +7 тепло 1007.9 997.1
Ю 5 12 км ясно +10.8 +10.0 95 +8 +9 тепло 1008.3 997.6
ЮЗ 5 17 км ясно +11.5 +10.1 91 +9 +10 тепло 1008.9 998.2
Ю 6 25 км 1/0 2000 м
[]
+12.7 +10.4 86 +10 +11 тепло 1009.7 999.0
ЮЗ 5 26 км ясно +12.7 +10.3 85 +10 +12 тепло 1009.8 999.1
ЮЗ 4 30 км ясно +13.0 +10.3 84 +11 +13 тепло 1010.0 999.4
ЮЗ 4 35 км ясно +12.9 +10.6 86 +11 +12 тепло 1010.7 1000.1
ЮЗ 3 35 км ясно +12.4 +10.0 85 +11 +11 тепло 1011.2 1000.5
Ю 3 26 км ясно +10.9 +10.2 95 +9 +9 тепло 1011.9 1001.2
Ю 1 11 км ясно +10.5 +10.3 99 +10 +10 тепло 1012.6 1001.9
Ю 2 8000 м дымка ясно +10.2 +10.2 100 +9 +9 тепло 1013.4 1002.6 +8.7 +13.3
Ю 2 7000 м дымка ясно +9.9 +9.9 100 +9 +9 тепло 1013.9 1003.1
Ю 1 5000 м дымка ясно +9.8 +9.8 100 +9 +9 тепло 1014.4 1003.6
ЮЗ 1 6000 м дымка ясно +10.0 +10.0 100 +9 +9 тепло 1014.9 1004.1
Ю 1 300 м туман {дымка} ясно +8.9 +8.9 100 +8 +8 тепло 1015.7 1004.9
ЮЗ 1 200 м туман ясно +8.6 +8.6 100 +8 +8 тепло 1016.1 1005.2
СЗ 2 100 м туман {дымка} ясно +6.1 +6.1 100 +4 +4 по сезону 1016.7 1005.8
100 м туман 6/6 30 м
[]
+7.3 +7.3 100 1017.4 1006.5
С 3 100 м туман 10/10 30 м
[]
+7.8 +7.8 100 +5 +5 тепло 1017.2 1006.3
СВ 2 100 м туман 9/9 30 м
[]
+7.0 +6.9 99 +5 +5 тепло 1018.0 1007.1
С 3 300 м туман 9/9 30 м
[]
+7.4 +7.4 100 +5 +5 тепло 1017.9 1007.0
СВ 2 2800 м в посл. час туман 1/1 240 м
[]
+7.0 +7.0 100 +4 +4 по сезону 1018.8 1007.9
СВ 3 400 м туман 6/6 30 м
[]
+7.1 +7.1 100 +4 +4 по сезону 1019.2 1008.3 +5.9 +10.4
СВ 3 8000 м в посл. час туман 9/9 300 м
[]
+6.9 +6.9 100 +4 +4 по сезону 1019.8 1008.8
С 3 10 км 4/4 30 м
[]
+6.6 +6.6 100 +4 +4 по сезону 1019.9 1008.9
СВ 2 10 км {туман, дымка} 4/4 400 м
[]
+7.7 +7.6 99 +6 +7 тепло 1020.4 1009.4
СВ 3 16 км 9/9 400 м
[]
+9.3 +9.3 100 +7 +7 тепло 1020.4 1009.5
В 3 45 км 9/9 330 м
[]
+9.6 +8.3 92 +7 +7 тепло 1020.7 1009.8
В 3 45 км {туман, дымка} 6/6 330 м
[]
+9.6 +8.4 92 +7 +8 тепло 1020.4 1009.5
СВ 3 18 км слаб. ливневой дождь 1/1 360 м
[]
+9.1 +8.4 95 +7 +8 тепло 1020.4 1009.6
СВ 3 25 км слаб. дождь 1/1 210 м
[]
+8.8 +8.8 100 +6 +7 тепло 1020.1 1009.2
СВ 4 24 км {ливн. осадки, дождь} 6/6 120 м
[]
+8.4 +8.4 100 +5 +5 тепло 1019.6 1008.7
СВ 4 29 км в посл. час морось {ливн. осадки} 6/6 120 м
[]
+8.0 +8.0 100 +5 +5 тепло 1019.2 1008.3
С 3 14 км 6/6 210 м
[]
+7.8 +7.8 100 +5 +5 тепло 1019.2 1008.3
В 3 30 км {ливн. осадки, дождь} 1/1 240 м
[]
+7.9 +7.9 100 +5 +5 тепло 1019.3 1008.4 +6.6 +9.7
С 4 7000 м дымка 10/10 210 м
[]
+7.8 +7.8 100 +4 +4 по сезону 1019.7 1008.8
3100 м дымка 10/10 60 м
[]
+7.4 +7.4 100 1019.7 1008.7
СВ 3 400 м туман {дымка} 9/9 30 м
[]
+7.2 +7.2 100 +4 +4 по сезону 1019.1 1008.1
СВ 3 200 м туман 10/10 60 м
[]
+7.2 +7.1 99 +4 +4 по сезону 1019.1 1008.1
С 3 4500 м в посл. час туман {дымка} 9/9 60 м
[]
+7.0 +7.0 100 +4 +4 по сезону 1019.0 1008.0
В 1 11 км {туман, дымка} 6/6 400 м
[]
+7.0 +7.0 100 +6 +6 тепло 1018.5 1007.6
В 1 7000 м дымка 9/9 270 м
[]
+7.2 +7.2 100 +6 +6 тепло 1018.4 1007.5
В 2 19 км 9/9 300 м
[]
+7.9 +7.8 99 +6 +6 тепло 1017.7 1006.7
ЮВ 1 9000 м дымка 9/9 300 м
[]
+7.7 +7.7 100 +7 +7 тепло 1017.5 1006.6
ЮВ 1 2400 м дымка 10/10 90 м
[]
+7.9 +7.9 100 +7 +7 тепло 1017.2 1006.3
ЮВ 2 700 м туман {дымка} 10/10 90 м
[]
+8.1 +8.1 100 +6 +6 тепло 1016.9 1006.0
штиль 0 300 м туман {дымка} 10/10 60 м
[]
+8.2 +8.2 100 +7 +7 тепло 1017.2 1006.3 +6.9 +8.2
ЮЗ 2 200 м туман 10/10 90 м
[]
+8.3 +8.3 100 +7 +7 тепло 1017.5 1006.7
Ю 2 1000 м в посл. час туман 9/9 30 м
[]
+8.4 +8.4 100 +7 +7 тепло 1017.3 1006.4
ЮЗ 4 2600 м в посл. час туман 10/10 60 м
[]
+8.7 +8.7 100 +5 +5 тепло 1017.8 1006.9
ЮЗ 5 10 км 4/4 90 м
[]
+10.0 +10.0 100 +7 +7 тепло 1018.1 1007.3
ЮЗ 5 17 км 6/6 180 м
[]
+10.7 +10.3 97 +8 +8 тепло 1018.1 1007.3
ЮЗ 6 22 км {туман, дымка} 1/1 240 м
[]
+11.0 +10.2 95 +8 +9 тепло 1018.1 1007.3
ЮЗ 6 30 км ясно +11.6 +10.1 91 +9 +9 тепло 1017.8 1007.0
ЮЗ 7 45 км ясно +11.7 +8.8 82 +9 +9 тепло 1017.6 1006.8
ЮЗ 8 45 км ясно +11.5 +8.0 79 +8 +8 тепло 1017.6 1006.8
ЮЗ 6 50 км ясно +10.6 +7.3 80 +7 +7 тепло 1017.8 1007.0
ЮЗ 6 45 км ясно +9.6 +6.3 80 +6 +6 тепло 1018.0 1007.1
ЮЗ 6 40 км ясно +9.8 +6.5 80 +6 +6 тепло 1018.5 1007.7 +7.8 +12.0
ЮЗ 6 40 км ясно +9.5 +6.4 81 +6 +6 тепло 1018.3 1007.4
ЮЗ 6 40 км ясно +9.2 +6.8 85 +5 +5 тепло 1018.4 1007.5
ЮЗ 6 30 км ясно +9.0 +7.1 88 +5 +5 тепло 1018.5 1007.6
ЮЗ 4 28 км ясно +8.3 +7.1 92 +5 +5 тепло 1018.7 1007.8
ЮЗ 5 26 км ясно +8.3 +7.2 93 +4 +4 по сезону 1018.6 1007.7
ЮЗ 5 26 км ясно +7.9 +7.0 94 +4 +4 по сезону 1018.9 1008.0
ЮЗ 4 30 км 1/1 840 м
[]
+8.8 +7.3 90 +6 +6 тепло 1018.9 1008.0
ЮЗ 5 30 км 1/1 930 м
[]
+9.5 +7.3 86 +6 +6 тепло 1018.7 1007.8
ЮЗ 5 30 км 1/1 960 м
[]
+9.8 +7.2 84 +7 +7 тепло 1018.3 1007.5
ЮЗ 4 30 км 1/1 930 м
[]
+9.3 +7.1 86 +6 +6 тепло 1018.0 1007.1
ЮЗ 4 30 км 1/1 960 м
[]
+8.9 +6.7 86 +6 +6 тепло 1017.9 1007.0
ЮЗ 5 30 км 1/1 930 м
[]
+8.3 +6.8 90 +5 +5 тепло 1018.1 1007.2 +7.7 +10.0
Ю 4 40 км 1/1 1000 м
[]
+8.6 +6.6 87 +5 +5 тепло 1018.4 1007.5
Ю 5 35 км ясно +9.4 +7.1 86 +6 +6 тепло 1018.5 1007.6
ЮЗ 4 40 км ясно +10.3 +7.6 83 +8 +9 тепло 1018.5 1007.7
ЮЗ 5 45 км ясно +11.3 +8.0 80 +9 +10 тепло 1018.5 1007.7
ЮЗ 6 35 км ясно +12.3 +8.2 76 +10 +11 тепло 1018.2 1007.5
ЮЗ 6 40 км ясно +12.7 +8.0 73 +10 +11 тепло 1017.7 1006.9
ЮЗ 5 30 км ясно +12.5 +8.5 77 +10 +11 тепло 1016.7 1006.0
Ю 4 35 км 1/1 570 м
[]
+11.7 +9.6 87 +9 +10 тепло 1016.5 1005.7
Ю 4 26 км ясно +11.2 +9.5 89 +9 +9 тепло 1016.2 1005.4
Ю 4 30 км ясно +10.5 +9.1 91 +8 +8 тепло 1016.2 1005.4
Ю 3 13 км 1/1 540 м
[]
+9.2 +8.9 98 +7 +7 тепло 1015.9 1005.0
Ю 3 9000 м дымка 1/1 570 м
[]
+9.0 +9.0 100 +7 +7 тепло 1015.9 1005.1 +8.0 +12.8
Ю 4 8000 м дымка ясно +8.8 +8.8 100 +6 +6 тепло 1015.3 1004.5
Ю 3 7000 м дымка ясно +8.7 +8.6 99 +6 +6 тепло 1014.7 1003.8
Местоположение метеостанции Хальд V (Дания): широта 56.57 долгота 10.10 высота над уровнем моря 89 м.
В архиве по умолчанию представлена погода в Хальде V за последнюю неделю. Архивные данные за месяц целиком и за предыдущие месяцы, начиная с января 2011 года, Вы можете получить, выбрав интересующий диапазон дат из раскрывающегося списка и нажав кнопку "Найти!".
*Определитесь, кто Вы:
Внимание! Время в таблицах - всемирное. Для получения местного времени необходимо прибавить поправку, которая равна 1 ч.
Смотрите также архив погоды в соседних городах и на ближайших метеорологических станциях:
Партнеры нашего сайта:      
Пояснения к столбцам:
  • Ветер - указаны скорость ветра в м/с - средняя за 10 мин, порывы в срок и между сроками (в фигурных скобках) и направление, откуда дует ветер: С - северный,
  • СВ - северо-восточный, В - восточный, ЮВ - юго-восточный, Ю - южный, ЮЗ - юго-западный, З - западный, СЗ - северо-западный.
  • Видимость - горизонтальная дальность видимости в метрах или километрах. При видимости от 1 до 10 км при отсутствии осадков обычно наблюдается дымка, при ухудшении видимости до 1 км и менее - туман. В сухую погоду видимость может ухудшаться дымом, пылью или мглою.
  • Явления - указаны атмосферные явления, наблюдавшиеся в срок или в последний час перед сроком; фигурными скобками обозначены явления, наблюдавшиеся между сроками (за 1-3 часа до срока); квадратными скобками обозначены град или гололедные отложения с указанием их диаметра в мм.
  • Облачность - указаны через наклонную черту общая и нижняя облачность в баллах и высота нижней границы облаков в метрах; квадратными скобками обозначены формы облаков: Ci - перистые, Cs - перисто-слоистые, Cc - перисто-кучевые, Ac - высококучевые, As - высокослоистые, Sc - слоисто-кучевые, Ns - слоисто-дождевые, Cu - кучевые, Cb - кучево-дождевые. Подробнее классификацию облаков см. в Атласе облаков (PDF).
  • T - Температура воздуха - температура, измеренная на высоте 2 м над землей.
  • Td - Температура точки росы - температура, при понижении до которой содержащийся в воздухе водяной пар достигнет насыщения.
  • f - Относительная влажность воздуха - влажноcть воздуха, измеренная на высоте 2 м над землей.
  • Te - Эффективная температура - температура, которую ощущает одетый по сезону человек в тени. Характеристика душности погоды. При расчете учитывается влияние влажности воздуха и скорости ветра на теплоощущения человека.
  • Tes - Эффективная температура на солнце - температура, которую ощущает человек, с поправкой на солнечный нагрев. Характеристика знойности погоды. Зависит от высоты солнца над горизонтом, облачности и скорости ветра. Ночью, в пасмурную погоду, а также при ветре 12 м/с и более поправка равна нулю.
  • P - Атмосферное давление - приведенное к уровню моря атмосферное давление.
  • Po - Атмосферное давление - измеренное на уровне метеостанции атмосферное давление.
  • Tmin - Минимальная температура - минимум температуры воздуха на высоте 2 м над землей.
  • Tmax - Максимальная температура - максимум температуры воздуха на высоте 2 м над землей.
  • R - Количество осадков - Количество выпавших осадков за период времени, мм. При наведении курсора мыши на число - период времени, за который выпало указанное количество осадков.
  • R24 - Количество осадков - Количество выпавших осадков за 24 часа, мм.
  • S - Снежный покров - Высота снежного покрова, см. При наведении курсора мыши на число - состояние снежного покрова и степень покрытия местности в баллах.